{"data":{"norad_id":65938,"intl_designator":"2025-226A","name":"2025-226A","alt_names":[],"object_type":"PAYLOAD","status":"ACTIVE","operator":null,"country":"PRC","launch_date":"2025-10-11","launch_site_code":"YSLA","launch_vehicle":null,"mission":null,"orbit_class":"UNKNOWN","rcs_meters":null,"size_class":null,"mass_kg":null,"dimensions":null,"purposes":[],"wikipedia_slug":null,"has_3d_model":false,"image_url":null,"decayed_at":null,"tle_current":{"epoch":"2026-09-20T12:51:23.164992Z","epoch_age_seconds":140608,"freshness":"FRESH","line1":"1 65938U 25226A   26263.53568478  .00005064  00000+0  25486-3 0  9995","line2":"2 65938  97.6384 344.7737 0013614 171.3837 188.7633 15.17597743 52158","mean_motion":15.17597743,"eccentricity":0.0013614,"inclination_deg":97.6384,"raan_deg":344.7737,"arg_perigee_deg":171.3837,"mean_anomaly_deg":188.7633,"bstar":0.00025486,"rev_number":5215,"period_min":94.886804269582,"perigee_km":503.72155195057,"apogee_km":522.48502100258,"semimajor_km":6891.2402864766,"source":"CELESTRAK","updated_at":"2026-09-21T09:00:15.651975Z"}}}